Location: G�ppingen
(48.7089°N, 9.6563°E)
Time: 09:36:39
(UTC+01:00)

KKS-1 - Visible Passes

Search period start: 26 March 2019 00:00
Search period end: 05 April 2019 01:00
Orbit: 636 x 651 km, 98.4° (Epoch: 26 March)

Date Brightness Start Highest point End Pass type
(mag) Time Alt. Az. Time Alt. Az. Time Alt. Az.
26 Mar ? 05:21:01 10° SE 05:24:56 31° ENE 05:28:51 10° N visible
26 Mar ? 20:20:29 10° N 20:24:19 29° WNW 20:28:07 10° SW visible
27 Mar ? 20:45:36 10° NNW 20:48:40 19° WNW 20:51:44 10° WSW visible
28 Mar ? 04:36:00 10° E 04:38:03 13° NE 04:40:06 10° NNE visible
28 Mar ? 19:32:42 10° NNE 19:37:08 80° WNW 19:41:34 10° SSW visible
28 Mar ? 21:11:19 10° NNW 21:12:57 12° NW 21:14:35 10° WNW visible
29 Mar ? 04:59:05 10° ESE 05:02:21 20° ENE 05:05:37 10° NNE visible
29 Mar ? 19:57:25 10° N 20:01:40 47° WNW 20:05:54 10° SW visible
30 Mar ? 05:22:48 10° SE 05:26:44 32° ENE 05:30:41 10° N visible
30 Mar ? 20:22:18 10° N 20:26:06 29° WNW 20:29:54 10° WSW visible
31 Mar ? 21:47:26 10° NNW 21:50:27 18° WNW 21:53:29 10° WSW visible
01 Apr ? 05:37:44 10° E 05:39:51 13° NE 05:41:57 10° NNE visible
01 Apr ? 20:34:30 10° NNE 20:38:56 78° WNW 20:43:22 10° SSW visible
01 Apr ? 22:13:12 10° NW 22:14:45 12° NW 22:16:17 10° WNW visible
02 Apr ? 06:00:51 10° ESE 06:04:09 21° ENE 06:07:26 10° NNE visible
02 Apr ? 20:59:13 10° N 21:03:28 46° WNW 21:07:41 10° SW visible
03 Apr ? 21:24:07 10° N 21:27:54 28° WNW 21:31:40 10° WSW visible
04 Apr ? 21:49:16 10° NNW 21:52:15 18° WNW 21:55:14 10° WSW visible
